Home   Weather   35°38'N, 139°44'E   Past weeks
Flag for Japan

Past Weather in 35°38'N, 139°44'E, Japan — Yesterday and Last 2 Weeks

Now
67 °F

Mild.


Feels Like: 67 °F
Forecast: 72 / 60 °F
Wind: 7 mph from East

Location: Tokyo

Current Time: Apr 22, 2019 at 7:51:25 pm

Latest Report: Apr 22, 2019 at 7:00 pm


Visibility: N/A

Pressure: 29.98 "Hg

Humidity: 66%

Dew Point: 56 °F

Location of 35°38'N, 139°44'ELocation

Past Weather in 35°38'N, 139°44'E — Graph

°F

35°38'N, 139°44'E Temperature Yesterday

Maximum temperature yesterday: 72 °F (at 1:00 pm)
Minimum temperature yesterday: 54 °F (at 5:00 am)
Average temperature yesterday: 64 °F

High & Low Weather Summary for the Past Weeks

 TemperatureHumidityPressure
High77 °F (Apr 22, 1:00 pm)100% (Apr 8, 7:00 pm)30.23 "Hg (Apr 8, 7:00 pm)
Low39 °F (Apr 10, 8:00 pm)19% (Apr 15, 5:00 pm)29.54 "Hg (Apr 11, 4:00 am)
Average57 °F62%29.93 "Hg
* Reported Apr 7 6:00 pm — Apr 22 6:00 pm, 35°38'N, 139°44'E. Weather by CustomWeather, © 2019

Note: Actual official high and low records may vary slightly from our data, if they occured in-between our weather recording intervals... More about our weather records

Advertising

35°38'N, 139°44'E Weather History for the Previous 24 Hours

Scroll right to see more
 ConditionsComfort  
Time TempWeatherWind HumidityBarometerVisibility
6:00 pm
Mon, Apr 22
68 °FPartly sunny.7 mph67%29.96 "Hg9 mi
5:00 pm70 °FMild.12 mph63%29.93 "HgN/A
4:00 pm72 °FMild.14 mph64%29.90 "HgN/A
3:00 pm77 °FPartly sunny.8 mph51%29.88 "Hg12 mi
2:00 pm76 °FMild.8 mph48%29.89 "HgN/A
1:00 pm77 °FWarm.6 mph53%29.89 "HgN/A
12:00 pm74 °FOvercast.3 mph50%29.90 "Hg9 mi
11:00 am73 °FMild.2 mph57%29.91 "HgN/A
10:00 am69 °FMild.3 mph62%29.93 "HgN/A
9:00 am67 °FOvercast.5 mph72%29.93 "Hg6 mi
8:00 am64 °FMild.3 mph78%29.93 "HgN/A
7:00 am63 °FMild.3 mph83%29.92 "HgN/A
6:00 am60 °FOvercast.3 mph89%29.91 "Hg6 mi
5:00 am58 °FCool.3 mph92%29.90 "HgN/A
4:00 am59 °FCool.3 mph90%29.89 "HgN/A
3:00 am60 °FOvercast.5 mph88%29.89 "Hg9 mi
2:00 am61 °FCool.6 mph86%29.89 "HgN/A
1:00 am62 °FCool.2 mph84%29.89 "HgN/A
12:00 am62 °FCool.1 mph89%29.90 "HgN/A
11:00 pm
Sun, Apr 21
63 °FMild.2 mph84%29.90 "HgN/A
10:00 pm64 °FMild.3 mph80%29.90 "HgN/A
9:00 pm65 °FOvercast.6 mph83%29.89 "Hg9 mi
8:00 pm63 °FMild.2 mph87%29.90 "HgN/A
7:00 pm65 °FMild.7 mph78%29.87 "HgN/A
Weather by CustomWeather, © 2019

See weather overview